Regional Weather Roundup
Issued by NWS

Home | Current Version | Previous Version | Graphics & Text | Print | Product List | Glossary On
Versions: 1 2 3 4 5 6 7 8 9 10 11 12 13 14 15 16 17 18 19 20 21 22 23 24 25 26 27 28 29 30 31 32 33 34 35 36 37 38 39 40 41 42 43 44 45 46 47 48 49 50
000
ASUS43 KLMK 281110
RWRKY
KENTUCKY REGIONAL WEATHER ROUNDUP
NATIONAL WEATHER SERVICE LOUISVILLE KY
600 AM EST SAT FEB 28 2015

NOTE "FAIR" INDICATES FEW OR NO CLOUDS BELOW 12,000 FEET
WITH NO SIGNIFICANT WEATHER AND/OR OBSTRUCTIONS TO VISIBILITY.

KYZ001>023-026-027-061>063-070>075-281200-
WESTERN AND SOUTH CENTRAL KENTUCKY

CITY           SKY/WX    TMP DP  RH WIND       PRES   REMARKS
PADUCAH        CLOUDY    20  10  65 NE10      30.62R WCI   9
HENDERSON      CLOUDY    19   9  63 NE8       30.65R WCI   9
OWENSBORO      MOCLDY    20  10  65 NE6       30.66R WCI  12
HOPKINSVILLE   CLOUDY    23  10  58 NE9       30.58R WCI  13
BOWLING GREEN  CLOUDY    23   9  55 NE12      30.61R WCI  12
GLASGOW        CLOUDY    21  11  64 NE7       30.61R WCI  13
$$

KYZ024-025-028>034-038-045-046-053-281200-
NORTH CENTRAL KENTUCKY

CITY           SKY/WX    TMP DP  RH WIND       PRES   REMARKS
LOUISVILLE/SDF PTCLDY    18   4  54 E7        30.67R WCI   9
LOUISVILLE/LOU CLOUDY    18   3  52 E7        30.67R WCI   9
FORT KNOX      MOCLDY    18   5  57 NE8       30.61R WCI   7
$$

KYZ035>037-039>044-047>052-055>060-089>105-281200-
NORTHEAST KENTUCKY

CITY           SKY/WX    TMP DP  RH WIND       PRES   REMARKS
LEXINGTON      CLOUDY    16   5  62 E9        30.64R WCI   4
COVINGTON      CLOUDY    12   1  61 E9        30.66S WCI   0
FRANKFORT        N/A     16   3  56 E8        30.65R WCI   5
$$

KYZ054-064>069-076>088-106>120-281200-
SOUTHEAST KENTUCKY

CITY           SKY/WX    TMP DP  RH WIND       PRES   REMARKS
JACKSON        CLOUDY    18   6  59 VRB6      30.60R WCI  10
LONDON         CLOUDY    22   8  55 NE6       30.57S WCI  14
SOMERSET       MOCLDY    21   9  58 E6        30.62R WCI  14
MIDDLESBORO    CLOUDY    21  16  78 CALM      30.58S
MONTICELLO     PTSUNNY   21  11  65 E5        30.61R WCI  15
$$




USA.gov is the U.S. government's official web portal to all federal, state and local government web resources and services.